Regional Weather Roundup
Issued by NWS

Home | Current Version | Previous Version | Text Only | Print | Product List | Glossary Off
Versions: 1 2 3 4 5 6 7 8 9 10 11 12 13 14 15 16 17 18 19 20 21 22 23 24 25 26 27 28 29 30 31 32 33 34 35 36 37 38 39 40 41 42 43 44 45 46 47 48 49 50

000
ASUS45 KCYS 241310
RWRWY

WYOMING REGIONAL WEATHER ROUNDUP
NATIONAL WEATHER SERVICE CHEYENNE WY
700 AM MDT FRI APR 24 2015

NOTE:  "FAIR" INDICATES FEW OR NO CLOUDS BELOW 12,000 FEET
WITH NO SIGNIFICANT WEATHER AND/OR OBSTRUCTIONS TO VISIBILITY.

WYZ001-241400-
YELLOWSTONE NATIONAL PARK

CITY           SKY/WX    TMP DP  RH WIND       PRES   REMARKS
LK YELLOWSTONE   N/A     24  20  84 CALM      29.78F
W YELLOWSTONE  NOT AVBL

$$
WYZ002>013-054>058-071-098>099-241400-
NORTHERN WYOMING

CITY           SKY/WX    TMP DP  RH WIND       PRES   REMARKS
JACKSON        FAIR      27  27 100 N3        29.77S
CODY           FAIR      45  28  53 SW13      29.66R
GREYBULL       FAIR      38  36  92 CALM      29.66R
WORLAND        FAIR      39  37  92 SW5       29.66S
SHERIDAN       FOG       35  34  96 NW3       29.63S VSB 1/4
BUFFALO        FAIR      44  32  62 W5        29.65S
GILLETTE       FAIR      42  39  89 CALM      29.64S
HULETT         DRIZZLE   45  37  76 CALM      29.66S
NEWCASTLE      FAIR      36  36 100 CALM      29.66R

$$
WYZ014>020-022>026-101>103-241400-
CENTRAL WYOMING

CITY           SKY/WX    TMP DP  RH WIND       PRES   REMARKS
BIG PINEY      MOCLDY    28  25  88 E5        29.80S WCI  23
PINEDALE       FAIR      23  23 100 W3        29.81R
DUBOIS         FAIR      30  23  74 W14       29.75S WCI  20
LANDER         FAIR      38  27  64 CALM      29.69S
RIVERTON       FAIR      39  29  67 SW6       29.70S WCI  35
CASPER         MOCLDY    46  35  65 SW14      29.69R
DOUGLAS        FAIR      39  37  92 CALM      29.68S

$$
WYZ021-027>030-104>119-241400-
SOUTHERN WYOMING

CITY           SKY/WX    TMP DP  RH WIND       PRES   REMARKS
EVANSTON       MOCLDY    36  30  79 S6        29.79S WCI  31
FORT BRIDGER   MOSUNNY   37  32  81 W9        29.82S WCI  31
ROCK SPRINGS   CLOUDY    37  31  78 CALM      29.79S
DIXON          FAIR      35  31  84 CALM      29.83S
RAWLINS        FAIR      40  30  67 W9        29.78S WCI  34
SARATOGA       FAIR      34  30  86 S7        29.81S WCI  28
LARAMIE        FAIR      34  28  79 SW10      29.77F WCI  26
CHEYENNE       FAIR      42  30  62 W10       29.75R
TORRINGTON     FAIR      41  33  73 SE5       29.67S
PINE BLUFFS    FAIR      36  32  87 CALM      29.73S

$$



USA.gov is the U.S. government's official web portal to all federal, state and local government web resources and services.